Regional Weather Roundup
Issued by NWS Newport/Morehead, NC

Current Version | Previous Version | Text Only | Print | Product List | Glossary On
Versions: 1 2 3 4 5 6 7 8 9 10 11 12 13 14 15 16 17 18 19 20 21 22 23 24 25 26 27 28 29 30 31 32 33 34 35 36 37 38 39 40 41 42 43 44 45 46 47 48 49 50
000 ASUS42 KMHX 231713 RWRMHX WEATHER ROUNDUP FOR EASTERN NORTH CAROLINA NATIONAL WEATHER SERVICE NEWPORT/MOREHEAD CITY NC 1200 PM EST MON JAN 23 2017 NOTE: "FAIR" INDICATES FEW OR NO CLOUDS BELOW 12,000 FEET WITH NO SIGNIFICANT WEATHER AND/OR OBSTRUCTIONS TO VISIBILITY NCZ015>017-031-032-045>047-102-103-231800- NORTH COAST CITY SKY/WX TMP DP RH WIND PRES REMARKS EDENTON SUNNY 64 54 69 SW8 29.28F ELIZABETH CITY PTSUNNY 62 56 80 SW16 29.26F KITTY HAWK NOT AVBL MANTEO CLOUDY 58 55 87 W8 29.28F $$ NCZ045>047-081-094-103-104-231800- CENTRAL COAST CITY SKY/WX TMP DP RH WIND PRES REMARKS FRISCO CLOUDY 61 52 72 SW9 29.30F HAZE $$ NCZ095-097-098-100-101-231800- SOUTHERN COAST CITY SKY/WX TMP DP RH WIND PRES REMARKS BEAUFORT SUNNY 59 50 72 SW9 29.28F CEDAR ISLAND NOT AVBL JACKSONVILLE NOT AVBL PINEY ISLAND SUNNY N/A N/A N/A SW7 29.28F WILMINGTON SUNNY 64 49 57 SW15 29.26F $$ NCZ011>013-027>030-043-044-078>080-089-090>093-098-231800- COASTAL PLAIN CITY SKY/WX TMP DP RH WIND PRES REMARKS AHOSKIE N/A 61 53 75 CALM 29.26F CLINTON MOSUNNY 62 50 63 S7 29.27F ELIZABETHTOWN SUNNY 63 48 58 SW12 29.28F GOLDSBORO SUNNY 63 51 65 W10 29.25F GREENVILLE MOSUNNY 63 50 63 W6 29.32F HAVELOCK CLOUDY 62 49 62 SW10 29.29F KENANSVILLE SUNNY 63 48 59 W14 29.28F KINSTON MOSUNNY 64 48 55 W6 29.27F NEW BERN MOSUNNY 62 47 57 W8 29.28F RICHLANDS SUNNY 64 49 57 SW8 29.27F ROCKY MOUNT MOSUNNY 61 50 67 W10 29.28F WASHINGTON PTSUNNY 64 50 61 W7 N/A WHITEVILLE PTSUNNY 61 49 63 SW6 29.26F $$ AMZ130-135-150-152-154-156-158-170-250-252-270-ANZ085-086-088-633-658-670-231800- MARINE OBSERVATIONS STATION/POSITION TIME TEMP WIND PRES WAVE SWELL AIR SEA DIR/SP/G HT/PER HT/PER (UTC) (F) (DEG/KT/KT) (MB) (FT/S) (FT/S) CHESAPEAKE LIGHT NOT AVBL 64 E VA BEACH 1650 58 56 210/ 17/ 23 990.7 9/10 7/10 DUCK 1642 57 46 230/ 11/ 13 990.5 2 E DUCK 1700 47 N/A 5/13 2/13 OREGON INLET 1642 52 51 190/ 12/ 14 991.3 13E OREGON INLT NOT AVBL HATTERAS CG 1648 56 240/ 10/ 15 991.8 DIAMOND BUOY 1650 64 76 250/ 17/ 21 992.1 7/14 3/14 CAPE LOOKOUT 1700 59 220/ 5/ 6 991.7 BEAUFORT LAB 1648 52 250/ 6/ 11 990.9 30 SE NEW RVR IN 1608 62 69 260/ 8/ 12 992.6 30 SE NEW RVR IN 1643 68 N/A 8/11 3/11 27 SE WRIGHTSVLE 1608 61 66 300/ 6/ 10 990.3 5 SE WRIGHTSVLE 1608 56 54 240/ 4/ 8 992.0 225 S CAPE HAT 1650 67 71 240/ 12/ 19 994.4 14/11 13/11 41 SE CHARLESTON 1650 58 68 240/ 25/ 33 991.0 8/10 5/10 $$

USA.gov is the U.S. government's official web portal to all federal, state and local government web resources and services.